| time (UTC) | temp F | wind direction | speed MPH | gust MPH | rain 1hr in | rain 24hr in | rain mn in | humidity % | barometer mb |
| 20260831212703 | 76 | 293 | 3.0 | 3.0 | 0.00 | 0.00 | 0.00 | 57 | 1012.0 |
| 20260831212200 | 77 | 304 | 1.0 | 2.0 | 0.00 | 0.00 | 0.00 | 57 | 1012.3 |
| 20260831211658 | 75 | 323 | 0.0 | 0.0 | 0.00 | 0.00 | 0.00 | 62 | 1012.2 |
| 20260831211153 | 74 | 131 | 3.0 | 5.0 | 0.00 | 0.00 | 0.00 | 62 | 1012.4 |
| 20260831210648 | 74 | 310 | 0.0 | 0.0 | 0.00 | 0.00 | 0.00 | 65 | 1012.4 |
| 20260831210144 | 74 | 282 | 1.0 | 1.0 | 0.00 | 0.00 | 0.00 | 62 | 1012.6 |
| 20260831205642 | 74 | 182 | 1.0 | 2.0 | 0.00 | 0.00 | 0.00 | 64 | 1012.7 |
| 20260831205139 | 76 | 63 | 1.0 | 1.0 | 0.00 | 0.00 | 0.00 | 65 | 1012.8 |
| 20260831204639 | 75 | 204 | 1.0 | 2.0 | 0.00 | 0.00 | 0.00 | 62 | 1012.6 |
| 20260831204138 | 73 | 343 | 0.0 | 1.0 | 0.00 | 0.00 | 0.00 | 62 | 1012.6 |
| 20260831203637 | 74 | 14 | 5.0 | 8.0 | 0.00 | 0.00 | 0.00 | 62 | 1012.8 |
| 20260831203132 | 74 | 148 | 1.0 | 2.0 | 0.00 | 0.00 | 0.00 | 63 | 1013.0 |
| 20260831202631 | 74 | 55 | 2.0 | 2.0 | 0.00 | 0.00 | 0.00 | 61 | 1012.9 |
| 20260831202126 | 74 | 315 | 1.0 | 2.0 | 0.00 | 0.00 | 0.00 | 64 | 1012.9 |
| 20260831201625 | 74 | 343 | 2.0 | 2.0 | 0.00 | 0.00 | 0.00 | 64 | 1013.0 |
| 20260831201120 | 73 | 286 | 0.0 | 1.0 | 0.00 | 0.00 | 0.00 | 63 | 1013.2 |
| 20260831200616 | 74 | 317 | 1.0 | 2.0 | 0.00 | 0.00 | 0.00 | 64 | 1013.1 |
| 20260831200115 | 74 | 288 | 1.0 | 2.0 | 0.00 | 0.00 | 0.00 | 64 | 1013.4 |
| 20260831195611 | 73 | 2 | 0.0 | 0.0 | 0.00 | 0.00 | 0.00 | 64 | 1013.4 |
| 20260831195106 | 73 | 7 | 3.0 | 3.0 | 0.00 | 0.00 | 0.00 | 63 | 1013.2 |
| 20260831194601 | 71 | 279 | 1.0 | 2.0 | 0.00 | 0.00 | 0.00 | 64 | 1013.4 |
| 20260831194056 | 72 | 149 | 1.0 | 2.0 | 0.00 | 0.00 | 0.00 | 65 | 1013.5 |
| 20260831193551 | 73 | 290 | 0.0 | 1.0 | 0.00 | 0.00 | 0.00 | 69 | 1013.4 |
| 20260831193051 | 72 | 20 | 1.0 | 1.0 | 0.00 | 0.00 | 0.00 | 67 | 1013.5 |
| 20260831192546 | 73 | 164 | 1.0 | 3.0 | 0.00 | 0.00 | 0.00 | 64 | 1013.8 |
| 20260831192042 | 72 | 332 | 1.0 | 1.0 | 0.00 | 0.00 | 0.00 | 66 | 1013.9 |
| 20260831191537 | 71 | 356 | 0.0 | 0.0 | 0.00 | 0.00 | 0.00 | 67 | 1013.8 |
| 20260831191033 | 71 | 183 | 3.0 | 3.0 | 0.00 | 0.00 | 0.00 | 66 | 1014.2 |
| 20260831190529 | 72 | 263 | 1.0 | 2.0 | 0.00 | 0.00 | 0.00 | 65 | 1014.2 |
| 20260831190027 | 71 | 216 | 1.0 | 2.0 | 0.00 | 0.00 | 0.00 | 65 | 1014.4 |
| 20260831185523 | 71 | 285 | 1.0 | 1.0 | 0.00 | 0.00 | 0.00 | 70 | 1014.4 |
| 20260831185018 | 69 | 62 | 2.0 | 3.0 | 0.00 | 0.00 | 0.00 | 67 | 1014.4 |
| 20260831184513 | 70 | 62 | 2.0 | 3.0 | 0.00 | 0.00 | 0.00 | 68 | 1014.6 |
| 20260831184008 | 70 | 349 | 3.0 | 3.0 | 0.00 | 0.00 | 0.00 | 69 | 1014.7 |
| 20260831183507 | 69 | 176 | 3.0 | 6.0 | 0.00 | 0.00 | 0.00 | 66 | 1014.8 |
| 20260831183007 | 70 | 319 | 0.0 | 0.0 | 0.00 | 0.00 | 0.00 | 68 | 1014.8 |
| 20260831182502 | 69 | 168 | 0.0 | 2.0 | 0.00 | 0.00 | 0.00 | 71 | 1015.2 |
| 20260831181957 | 68 | 359 | 1.0 | 2.0 | 0.00 | 0.00 | 0.00 | 68 | 1015.1 |
| 20260831181446 | 68 | 339 | 1.0 | 1.0 | 0.00 | 0.00 | 0.00 | 71 | 1015.1 |
| 20260831180941 | 69 | 337 | 1.0 | 3.0 | 0.00 | 0.00 | 0.00 | 72 | 1015.3 |
| 20260831180435 | 68 | 357 | 0.0 | 0.0 | 0.00 | 0.00 | 0.00 | 72 | 1015.3 |
| 20260831175935 | 67 | 180 | 3.0 | 3.0 | 0.00 | 0.00 | 0.00 | 71 | 1015.4 |
| 20260831175432 | 66 | 28 | 1.0 | 2.0 | 0.00 | 0.00 | 0.00 | 73 | 1015.5 |
| 20260831174927 | 67 | 94 | 1.0 | 1.0 | 0.00 | 0.00 | 0.00 | 73 | 1015.6 |
| 20260831174422 | 66 | 21 | 1.0 | 1.0 | 0.00 | 0.00 | 0.00 | 74 | 1015.5 |
| 20260831173921 | 66 | 71 | 2.0 | 2.0 | 0.00 | 0.00 | 0.00 | 74 | 1015.7 |
| 20260831173415 | 67 | 28 | 1.0 | 1.0 | 0.00 | 0.00 | 0.00 | 73 | 1015.8 |
| 20260831172911 | 65 | 34 | 0.0 | 0.0 | 0.00 | 0.00 | 0.00 | 79 | 1015.8 |
| 20260831172407 | 65 | 6 | 1.0 | 1.0 | 0.00 | 0.00 | 0.00 | 78 | 1015.8 |
| 20260831171906 | 65 | 331 | 2.0 | 2.0 | 0.00 | 0.00 | 0.00 | 77 | 1015.8 |
| 20260831171403 | 64 | 78 | 2.0 | 2.0 | 0.00 | 0.00 | 0.00 | 77 | 1016.0 |
| 20260831170859 | 63 | 3 | 0.0 | 0.0 | 0.00 | 0.00 | 0.00 | 81 | 1016.0 |
| 20260831170355 | 62 | 12 | 0.0 | 0.0 | 0.00 | 0.00 | 0.00 | 83 | 1016.0 |
| 20260831165851 | 61 | 87 | 1.0 | 2.0 | 0.00 | 0.00 | 0.00 | 82 | 1015.8 |
| 20260831165347 | 61 | 12 | 0.0 | 0.0 | 0.00 | 0.00 | 0.00 | 83 | 1015.9 |
| 20260831164843 | 62 | 5 | 1.0 | 1.0 | 0.00 | 0.00 | 0.00 | 83 | 1015.9 |
| 20260831164339 | 61 | 25 | 2.0 | 2.0 | 0.00 | 0.00 | 0.00 | 82 | 1016.2 |
| 20260831163834 | 60 | 46 | 0.0 | 0.0 | 0.00 | 0.00 | 0.00 | 86 | 1016.0 |
| 20260831163330 | 60 | 9 | 1.0 | 1.0 | 0.00 | 0.00 | 0.00 | 85 | 1016.2 |
| 20260831162828 | 60 | 22 | 0.0 | 0.0 | 0.00 | 0.00 | 0.00 | 88 | 1016.3 |
| 20260831162324 | 60 | 42 | 0.0 | 0.0 | 0.00 | 0.00 | 0.00 | 86 | 1016.1 |
| 20260831161822 | 59 | 34 | 0.0 | 0.0 | 0.00 | 0.00 | 0.00 | 88 | 1016.4 |
| 20260831161319 | 59 | 33 | 0.0 | 0.0 | 0.00 | 0.00 | 0.00 | 88 | 1016.2 |
| 20260831160814 | 59 | 25 | 0.0 | 0.0 | 0.00 | 0.00 | 0.00 | 88 | 1016.5 |
| 20260831160308 | 58 | 16 | 0.0 | 1.0 | 0.00 | 0.00 | 0.00 | 88 | 1016.5 |
| 20260831155803 | 58 | 357 | 0.0 | 0.0 | 0.00 | 0.00 | 0.00 | 88 | 1016.6 |
| 20260831155258 | 57 | 15 | 0.0 | 0.0 | 0.00 | 0.00 | 0.00 | 91 | 1016.7 |
| 20260831154753 | 57 | 5 | 0.0 | 0.0 | 0.00 | 0.00 | 0.00 | 90 | 1016.7 |
| 20260831154250 | 57 | 4 | 0.0 | 0.0 | 0.00 | 0.00 | 0.00 | 91 | 1016.7 |
| 20260831153748 | 56 | 57 | 0.0 | 0.0 | 0.00 | 0.00 | 0.00 | 91 | 1016.7 |
| 20260831153244 | 55 | 24 | 0.0 | 0.0 | 0.00 | 0.00 | 0.00 | 93 | 1016.7 |
| 20260831152739 | 53 | 23 | 0.0 | 0.0 | 0.00 | 0.00 | 0.00 | 98 | 1016.7 |
| 20260831152235 | 52 | 350 | 0.0 | 0.0 | 0.00 | 0.00 | 0.00 | 99 | 1016.6 |
| 20260831151730 | 51 | 11 | 0.0 | 0.0 | 0.00 | 0.00 | 0.00 | 99 | 1016.5 |
| 20260831151230 | 51 | 271 | 0.0 | 0.0 | 0.00 | 0.00 | 0.00 | 99 | 1016.5 |
| 20260831150725 | 51 | 1 | 0.0 | 0.0 | 0.00 | 0.00 | 0.00 | 99 | 1016.6 |
| 20260831150220 | 51 | 354 | 0.0 | 0.0 | 0.00 | 0.00 | 0.00 | 99 | 1016.7 |
| 20260831145719 | 51 | 350 | 0.0 | 0.0 | 0.00 | 0.00 | 0.00 | 99 | 1016.8 |
| 20260831145216 | 50 | 342 | 0.0 | 0.0 | 0.00 | 0.00 | 0.00 | 99 | 1016.7 |
| 20260831144711 | 50 | 7 | 0.0 | 0.0 | 0.00 | 0.00 | 0.00 | 99 | 1016.7 |
| 20260831144208 | 50 | 330 | 0.0 | 0.0 | 0.00 | 0.00 | 0.00 | 99 | 1016.6 |
| 20260831143706 | 50 | 6 | 1.0 | 2.0 | 0.00 | 0.00 | 0.00 | 99 | 1016.8 |
| 20260831143202 | 50 | 88 | 2.0 | 2.0 | 0.00 | 0.00 | 0.00 | 99 | 1016.6 |
| 20260831142658 | 50 | 306 | 0.0 | 0.0 | 0.00 | 0.00 | 0.00 | 99 | 1016.5 |
| 20260831142153 | 50 | 343 | 0.0 | 0.0 | 0.00 | 0.00 | 0.00 | 99 | 1016.7 |
| 20260831141652 | 50 | 263 | 1.0 | 1.0 | 0.00 | 0.00 | 0.00 | 99 | 1016.8 |
| 20260831141147 | 50 | 340 | 0.0 | 0.0 | 0.00 | 0.00 | 0.00 | 99 | 1016.6 |
| 20260831140646 | 50 | 33 | 1.0 | 2.0 | 0.00 | 0.00 | 0.00 | 99 | 1016.5 |
| 20260831140142 | 50 | 284 | 1.0 | 1.0 | 0.00 | 0.00 | 0.00 | 99 | 1016.7 |
| 20260831135639 | 50 | 78 | 1.0 | 2.0 | 0.00 | 0.00 | 0.00 | 99 | 1016.5 |
| 20260831135135 | 50 | 167 | 1.0 | 2.0 | 0.00 | 0.00 | 0.00 | 99 | 1016.6 |
| 20260831134631 | 50 | 345 | 0.0 | 0.0 | 0.00 | 0.00 | 0.00 | 99 | 1016.5 |
| 20260831134126 | 50 | 341 | 0.0 | 1.0 | 0.00 | 0.00 | 0.00 | 99 | 1016.6 |
| 20260831133625 | 50 | 307 | 0.0 | 0.0 | 0.00 | 0.00 | 0.00 | 99 | 1016.7 |
| 20260831133120 | 50 | 72 | 0.0 | 1.0 | 0.00 | 0.00 | 0.00 | 99 | 1016.9 |
| 20260831132616 | 50 | 54 | 2.0 | 2.0 | 0.00 | 0.00 | 0.00 | 99 | 1016.9 |
| 20260831132115 | 50 | 316 | 0.0 | 0.0 | 0.00 | 0.00 | 0.00 | 99 | 1016.8 |
| 20260831131610 | 50 | 334 | 0.0 | 0.0 | 0.00 | 0.00 | 0.00 | 99 | 1017.1 |
| 20260831131107 | 51 | 314 | 0.0 | 0.0 | 0.00 | 0.00 | 0.00 | 99 | 1017.0 |
| 20260831130601 | 51 | 345 | 0.0 | 0.0 | 0.00 | 0.00 | 0.00 | 99 | 1017.0 |
| 20260831130057 | 51 | 179 | 0.0 | 1.0 | 0.00 | 0.00 | 0.00 | 99 | 1017.0 |
| 20260831125555 | 51 | 27 | 2.0 | 3.0 | 0.00 | 0.00 | 0.00 | 99 | 1016.7 |
| 20260831125051 | 51 | 0 | 0.0 | 0.0 | 0.00 | 0.00 | 0.00 | 99 | 1016.8 |
| 20260831124547 | 51 | 313 | 0.0 | 0.0 | 0.00 | 0.00 | 0.00 | 99 | 1017.1 |
| 20260831124043 | 52 | 21 | 1.0 | 1.0 | 0.00 | 0.00 | 0.00 | 99 | 1016.7 |
| 20260831123542 | 51 | 38 | 3.0 | 3.0 | 0.00 | 0.00 | 0.00 | 99 | 1016.9 |
| 20260831123037 | 51 | 278 | 2.0 | 3.0 | 0.00 | 0.00 | 0.00 | 99 | 1017.2 |
| 20260831122536 | 51 | 331 | 0.0 | 0.0 | 0.00 | 0.00 | 0.00 | 99 | 1016.8 |
| 20260831122032 | 50 | 323 | 0.0 | 1.0 | 0.00 | 0.00 | 0.00 | 99 | 1017.0 |
| 20260831121527 | 51 | 342 | 0.0 | 0.0 | 0.00 | 0.00 | 0.00 | 99 | 1017.2 |
| 20260831121023 | 51 | 218 | 1.0 | 2.0 | 0.00 | 0.00 | 0.00 | 99 | 1016.9 |
| 20260831120522 | 51 | 345 | 0.0 | 1.0 | 0.00 | 0.00 | 0.00 | 99 | 1017.1 |
| 20260831120018 | 51 | 331 | 0.0 | 1.0 | 0.00 | 0.00 | 0.00 | 99 | 1017.3 |
| 20260831115514 | 51 | 352 | 0.0 | 0.0 | 0.00 | 0.00 | 0.00 | 99 | 1017.2 |
| 20260831115009 | 51 | 40 | 2.0 | 2.0 | 0.00 | 0.00 | 0.00 | 99 | 1017.1 |
| 20260831114508 | 51 | 356 | 0.0 | 0.0 | 0.00 | 0.00 | 0.00 | 99 | 1017.3 |
| 20260831114003 | 51 | 233 | 3.0 | 3.0 | 0.00 | 0.00 | 0.00 | 99 | 1017.3 |
| 20260831113502 | 51 | 180 | 1.0 | 2.0 | 0.00 | 0.00 | 0.00 | 99 | 1017.3 |
| 20260831112958 | 51 | 343 | 0.0 | 1.0 | 0.00 | 0.00 | 0.00 | 99 | 1017.6 |
| 20260831112458 | 51 | 336 | 0.0 | 1.0 | 0.00 | 0.00 | 0.00 | 99 | 1017.5 |
| 20260831111953 | 51 | 287 | 0.0 | 0.0 | 0.00 | 0.00 | 0.00 | 99 | 1017.4 |
| 20260831111448 | 51 | 330 | 0.0 | 0.0 | 0.00 | 0.00 | 0.00 | 99 | 1017.6 |
| 20260831110944 | 51 | 37 | 1.0 | 1.0 | 0.00 | 0.00 | 0.00 | 99 | 1017.5 |
| 20260831110439 | 51 | 8 | 1.0 | 1.0 | 0.00 | 0.00 | 0.00 | 99 | 1017.7 |
| 20260831105938 | 51 | 314 | 0.0 | 0.0 | 0.00 | 0.00 | 0.00 | 99 | 1017.7 |
| 20260831105434 | 51 | 7 | 0.0 | 0.0 | 0.00 | 0.00 | 0.00 | 99 | 1017.8 |
| 20260831104928 | 51 | 350 | 0.0 | 0.0 | 0.00 | 0.00 | 0.00 | 99 | 1017.8 |
| 20260831104425 | 51 | 353 | 0.0 | 0.0 | 0.00 | 0.00 | 0.00 | 99 | 1017.7 |
| 20260831103920 | 51 | 25 | 0.0 | 0.0 | 0.00 | 0.00 | 0.00 | 99 | 1017.6 |
| 20260831103421 | 52 | 39 | 1.0 | 1.0 | 0.00 | 0.00 | 0.00 | 99 | 1017.9 |
| 20260831102916 | 52 | 2 | 1.0 | 1.0 | 0.00 | 0.00 | 0.00 | 99 | 1017.8 |
| 20260831102416 | 52 | 341 | 0.0 | 0.0 | 0.00 | 0.00 | 0.00 | 99 | 1017.8 |
| 20260831101911 | 52 | 160 | 1.0 | 1.0 | 0.00 | 0.00 | 0.00 | 99 | 1017.9 |
| 20260831101406 | 52 | 4 | 0.0 | 0.0 | 0.00 | 0.00 | 0.00 | 99 | 1017.9 |
| 20260831100903 | 52 | 14 | 0.0 | 1.0 | 0.00 | 0.00 | 0.00 | 99 | 1018.0 |
| 20260831100358 | 52 | 2 | 0.0 | 0.0 | 0.00 | 0.00 | 0.00 | 99 | 1018.0 |
| 20260831095858 | 52 | 0 | 0.0 | 0.0 | 0.00 | 0.00 | 0.00 | 99 | 1017.9 |
| 20260831095357 | 52 | 26 | 1.0 | 2.0 | 0.00 | 0.00 | 0.00 | 99 | 1018.1 |
| 20260831094853 | 52 | 334 | 0.0 | 0.0 | 0.00 | 0.00 | 0.00 | 99 | 1017.9 |
| 20260831094348 | 52 | 89 | 1.0 | 2.0 | 0.00 | 0.00 | 0.00 | 99 | 1018.2 |
| 20260831093844 | 53 | 351 | 0.0 | 0.0 | 0.00 | 0.00 | 0.00 | 99 | 1018.3 |
| 20260831093339 | 53 | 353 | 0.0 | 0.0 | 0.00 | 0.00 | 0.00 | 99 | 1018.3 |
| 20260831092836 | 53 | 18 | 2.0 | 2.0 | 0.00 | 0.00 | 0.00 | 99 | 1018.5 |
| 20260831092331 | 53 | 12 | 1.0 | 1.0 | 0.00 | 0.00 | 0.00 | 99 | 1018.5 |
| 20260831091826 | 53 | 350 | 0.0 | 1.0 | 0.00 | 0.00 | 0.00 | 99 | 1018.6 |
| 20260831091322 | 53 | 40 | 1.0 | 3.0 | 0.00 | 0.00 | 0.00 | 99 | 1018.7 |
| 20260831090817 | 53 | 2 | 0.0 | 1.0 | 0.00 | 0.00 | 0.00 | 99 | 1018.8 |
| 20260831090313 | 53 | 349 | 0.0 | 0.0 | 0.00 | 0.00 | 0.00 | 99 | 1018.7 |
| 20260831085809 | 52 | 94 | 1.0 | 2.0 | 0.00 | 0.00 | 0.00 | 99 | 1018.8 |
| 20260831085306 | 53 | 337 | 0.0 | 0.0 | 0.00 | 0.00 | 0.00 | 99 | 1019.0 |
| 20260831084758 | 53 | 8 | 0.0 | 0.0 | 0.00 | 0.00 | 0.00 | 99 | 1018.8 |
| 20260831084254 | 53 | 348 | 0.0 | 0.0 | 0.00 | 0.00 | 0.00 | 99 | 1018.9 |
| 20260831083750 | 53 | 356 | 1.0 | 1.0 | 0.00 | 0.00 | 0.00 | 99 | 1019.1 |
| 20260831083245 | 52 | 346 | 0.0 | 0.0 | 0.00 | 0.00 | 0.00 | 99 | 1018.9 |
| 20260831082743 | 52 | 349 | 0.0 | 0.0 | 0.00 | 0.00 | 0.00 | 99 | 1019.0 |
| 20260831082239 | 53 | 6 | 0.0 | 0.0 | 0.00 | 0.00 | 0.00 | 99 | 1018.9 |
| 20260831081735 | 53 | 32 | 0.0 | 1.0 | 0.00 | 0.00 | 0.00 | 99 | 1018.9 |
| 20260831081230 | 52 | 346 | 0.0 | 0.0 | 0.00 | 0.00 | 0.00 | 99 | 1019.0 |
| 20260831080725 | 52 | 344 | 0.0 | 0.0 | 0.00 | 0.00 | 0.00 | 99 | 1019.2 |
| 20260831080220 | 52 | 342 | 0.0 | 0.0 | 0.00 | 0.00 | 0.00 | 99 | 1018.9 |
| 20260831075716 | 52 | 335 | 0.0 | 0.0 | 0.00 | 0.00 | 0.00 | 99 | 1019.0 |
| 20260831075211 | 52 | 349 | 0.0 | 0.0 | 0.00 | 0.00 | 0.00 | 99 | 1019.1 |
| 20260831074710 | 52 | 344 | 0.0 | 0.0 | 0.00 | 0.00 | 0.00 | 99 | 1018.9 |
| 20260831074205 | 52 | 337 | 0.0 | 0.0 | 0.00 | 0.00 | 0.00 | 99 | 1019.1 |
| 20260831073700 | 51 | 332 | 0.0 | 0.0 | 0.00 | 0.00 | 0.00 | 99 | 1019.4 |
| 20260831073159 | 52 | 332 | 0.0 | 0.0 | 0.00 | 0.00 | 0.00 | 99 | 1019.4 |
| 20260831072655 | 52 | 332 | 0.0 | 0.0 | 0.00 | 0.00 | 0.00 | 99 | 1019.2 |
| 20260831072151 | 52 | 332 | 0.0 | 0.0 | 0.00 | 0.00 | 0.00 | 99 | 1019.2 |
| 20260831071650 | 51 | 333 | 0.0 | 0.0 | 0.00 | 0.00 | 0.00 | 99 | 1019.2 |
| 20260831071145 | 51 | 332 | 0.0 | 0.0 | 0.00 | 0.00 | 0.00 | 99 | 1019.1 |
| 20260831070644 | 52 | 332 | 0.0 | 0.0 | 0.00 | 0.00 | 0.00 | 99 | 1019.2 |
| 20260831070133 | 52 | 333 | 0.0 | 0.0 | 0.00 | 0.00 | 0.00 | 99 | 1019.0 |
| 20260831065632 | 52 | 333 | 0.0 | 0.0 | 0.00 | 0.00 | 0.00 | 99 | 1019.3 |
| 20260831065131 | 53 | 318 | 0.0 | 0.0 | 0.00 | 0.00 | 0.00 | 99 | 1019.3 |
| 20260831064626 | 53 | 343 | 0.0 | 0.0 | 0.00 | 0.00 | 0.00 | 99 | 1019.3 |
| 20260831064122 | 52 | 343 | 0.0 | 0.0 | 0.00 | 0.00 | 0.00 | 99 | 1019.4 |
| 20260831063618 | 53 | 343 | 0.0 | 0.0 | 0.00 | 0.00 | 0.00 | 99 | 1019.5 |
| 20260831063113 | 53 | 343 | 0.0 | 0.0 | 0.00 | 0.00 | 0.00 | 99 | 1019.5 |
| 20260831062612 | 53 | 343 | 0.0 | 0.0 | 0.00 | 0.00 | 0.00 | 99 | 1019.4 |
| 20260831062107 | 53 | 343 | 0.0 | 0.0 | 0.00 | 0.00 | 0.00 | 99 | 1019.6 |
| 20260831061604 | 53 | 343 | 0.0 | 0.0 | 0.00 | 0.00 | 0.00 | 99 | 1019.6 |
| 20260831061101 | 53 | 343 | 0.0 | 0.0 | 0.00 | 0.00 | 0.00 | 99 | 1019.4 |
| 20260831060556 | 53 | 343 | 0.0 | 0.0 | 0.00 | 0.00 | 0.00 | 99 | 1019.5 |
| 20260831060051 | 53 | 343 | 0.0 | 0.0 | 0.00 | 0.00 | 0.00 | 99 | 1019.6 |
| 20260831055545 | 53 | 343 | 0.0 | 0.0 | 0.00 | 0.00 | 0.00 | 99 | 1019.8 |
| 20260831055041 | 53 | 343 | 0.0 | 0.0 | 0.00 | 0.00 | 0.00 | 99 | 1019.8 |
| 20260831054540 | 54 | 343 | 0.0 | 0.0 | 0.00 | 0.00 | 0.00 | 99 | 1019.7 |
| 20260831054040 | 54 | 343 | 0.0 | 0.0 | 0.00 | 0.00 | 0.00 | 99 | 1019.6 |
| 20260831053538 | 54 | 343 | 0.0 | 0.0 | 0.00 | 0.00 | 0.00 | 99 | 1019.9 |
| 20260831053039 | 54 | 343 | 0.0 | 0.0 | 0.00 | 0.00 | 0.00 | 98 | 1019.6 |
| 20260831052537 | 55 | 343 | 0.0 | 0.0 | 0.00 | 0.00 | 0.00 | 98 | 1019.7 |
| 20260831052037 | 55 | 343 | 0.0 | 0.0 | 0.00 | 0.00 | 0.00 | 97 | 1019.8 |
| 20260831051535 | 55 | 343 | 0.0 | 0.0 | 0.00 | 0.00 | 0.00 | 97 | 1020.0 |
| 20260831051030 | 55 | 343 | 0.0 | 0.0 | 0.00 | 0.00 | 0.00 | 96 | 1019.8 |
| 20260831050529 | 56 | 343 | 0.0 | 0.0 | 0.00 | 0.00 | 0.00 | 97 | 1020.1 |
| 20260831050027 | 56 | 343 | 0.0 | 0.0 | 0.00 | 0.00 | 0.00 | 96 | 1019.9 |
| 20260831045522 | 56 | 343 | 0.0 | 0.0 | 0.00 | 0.00 | 0.00 | 96 | 1020.1 |
| 20260831045017 | 56 | 343 | 0.0 | 0.0 | 0.00 | 0.00 | 0.00 | 96 | 1020.0 |
| 20260831044513 | 56 | 343 | 0.0 | 0.0 | 0.00 | 0.00 | 0.00 | 95 | 1020.1 |
| 20260831044008 | 56 | 343 | 0.0 | 0.0 | 0.00 | 0.00 | 0.00 | 95 | 1020.1 |
| 20260831043507 | 57 | 343 | 0.0 | 0.0 | 0.00 | 0.00 | 0.00 | 95 | 1020.0 |
| 20260831043003 | 57 | 344 | 0.0 | 0.0 | 0.00 | 0.00 | 0.00 | 95 | 1020.1 |
| 20260831042502 | 57 | 343 | 0.0 | 0.0 | 0.00 | 0.00 | 0.00 | 95 | 1020.3 |
| 20260831041957 | 57 | 343 | 0.0 | 0.0 | 0.00 | 0.00 | 0.00 | 94 | 1020.3 |
| 20260831041452 | 57 | 343 | 0.0 | 0.0 | 0.00 | 0.00 | 0.00 | 94 | 1020.4 |
| 20260831040951 | 57 | 343 | 0.0 | 0.0 | 0.00 | 0.00 | 0.00 | 93 | 1020.2 |
| 20260831040446 | 58 | 343 | 0.0 | 0.0 | 0.00 | 0.00 | 0.00 | 92 | 1020.5 |
| 20260831035943 | 58 | 344 | 0.0 | 0.0 | 0.00 | 0.00 | 0.00 | 92 | 1020.2 |
| 20260831035438 | 58 | 344 | 0.0 | 0.0 | 0.00 | 0.00 | 0.00 | 92 | 1020.1 |
| 20260831034933 | 58 | 344 | 0.0 | 0.0 | 0.00 | 0.00 | 0.00 | 90 | 1019.9 |
| 20260831034428 | 59 | 344 | 0.0 | 0.0 | 0.00 | 0.00 | 0.00 | 90 | 1019.9 |
| 20260831033923 | 59 | 344 | 0.0 | 0.0 | 0.00 | 0.00 | 0.00 | 90 | 1019.9 |
| 20260831033418 | 60 | 344 | 0.0 | 0.0 | 0.00 | 0.00 | 0.00 | 89 | 1020.0 |
| 20260831032914 | 60 | 343 | 0.0 | 0.0 | 0.00 | 0.00 | 0.00 | 88 | 1020.2 |
| 20260831032413 | 60 | 348 | 0.0 | 0.0 | 0.00 | 0.00 | 0.00 | 85 | 1020.1 |
| 20260831031908 | 61 | 341 | 0.0 | 0.0 | 0.00 | 0.00 | 0.00 | 89 | 1020.1 |
| 20260831031403 | 61 | 341 | 0.0 | 0.0 | 0.00 | 0.00 | 0.00 | 88 | 1020.0 |
| 20260831030857 | 61 | 341 | 0.0 | 0.0 | 0.00 | 0.00 | 0.00 | 87 | 1020.1 |
| 20260831030356 | 61 | 341 | 0.0 | 0.0 | 0.00 | 0.00 | 0.00 | 88 | 1020.0 |
| 20260831025855 | 62 | 339 | 0.0 | 0.0 | 0.00 | 0.00 | 0.00 | 88 | 1019.9 |
| 20260831025355 | 62 | 339 | 0.0 | 0.0 | 0.00 | 0.00 | 0.00 | 86 | 1019.9 |
| 20260831024850 | 62 | 338 | 0.0 | 0.0 | 0.00 | 0.00 | 0.00 | 86 | 1019.9 |
| 20260831024350 | 62 | 339 | 0.0 | 0.0 | 0.00 | 0.00 | 0.00 | 86 | 1020.2 |
| 20260831023849 | 62 | 339 | 0.0 | 0.0 | 0.00 | 0.00 | 0.00 | 86 | 1020.1 |
| 20260831023347 | 63 | 338 | 0.0 | 0.0 | 0.00 | 0.00 | 0.00 | 84 | 1019.9 |
| 20260831022843 | 63 | 339 | 0.0 | 0.0 | 0.00 | 0.00 | 0.00 | 84 | 1020.0 |
| 20260831022342 | 63 | 338 | 0.0 | 0.0 | 0.00 | 0.00 | 0.00 | 84 | 1019.9 |
| 20260831021836 | 63 | 338 | 0.0 | 0.0 | 0.00 | 0.00 | 0.00 | 81 | 1020.1 |
| 20260831021331 | 63 | 338 | 0.0 | 0.0 | 0.00 | 0.00 | 0.00 | 81 | 1019.8 |
| 20260831020827 | 63 | 349 | 0.0 | 0.0 | 0.00 | 0.00 | 0.00 | 78 | 1019.9 |
| 20260831020326 | 64 | 343 | 0.0 | 0.0 | 0.00 | 0.00 | 0.00 | 80 | 1019.7 |
| 20260831015822 | 64 | 338 | 0.0 | 0.0 | 0.00 | 0.00 | 0.00 | 79 | 1019.9 |
| 20260831015318 | 64 | 337 | 0.0 | 0.0 | 0.00 | 0.00 | 0.00 | 77 | 1020.1 |
| 20260831014817 | 65 | 341 | 1.0 | 1.0 | 0.00 | 0.00 | 0.00 | 76 | 1020.1 |
| 20260831014312 | 65 | 328 | 0.0 | 0.0 | 0.00 | 0.00 | 0.00 | 74 | 1019.8 |
| 20260831013808 | 65 | 328 | 0.0 | 0.0 | 0.00 | 0.00 | 0.00 | 76 | 1020.1 |
| 20260831013308 | 64 | 341 | 0.0 | 0.0 | 0.00 | 0.00 | 0.00 | 75 | 1020.1 |
| 20260831012803 | 65 | 329 | 0.0 | 0.0 | 0.00 | 0.00 | 0.00 | 77 | 1020.1 |
| 20260831012259 | 64 | 334 | 0.0 | 0.0 | 0.00 | 0.00 | 0.00 | 79 | 1020.0 |
| 20260831011757 | 64 | 324 | 0.0 | 0.0 | 0.00 | 0.00 | 0.00 | 78 | 1020.2 |
| 20260831011253 | 65 | 334 | 0.0 | 0.0 | 0.00 | 0.00 | 0.00 | 76 | 1020.1 |
| 20260831010748 | 65 | 326 | 0.0 | 1.0 | 0.00 | 0.00 | 0.00 | 75 | 1020.3 |
| 20260831010243 | 66 | 349 | 0.0 | 0.0 | 0.00 | 0.00 | 0.00 | 73 | 1020.1 |
| 20260831005739 | 66 | 319 | 0.0 | 0.0 | 0.00 | 0.00 | 0.00 | 72 | 1020.1 |
| 20260831005234 | 66 | 326 | 0.0 | 0.0 | 0.00 | 0.00 | 0.00 | 76 | 1020.3 |
| 20260831004729 | 66 | 335 | 2.0 | 3.0 | 0.00 | 0.00 | 0.00 | 71 | 1020.2 |
| 20260831004225 | 67 | 327 | 0.0 | 0.0 | 0.00 | 0.00 | 0.00 | 73 | 1020.2 |
| 20260831003720 | 67 | 344 | 0.0 | 0.0 | 0.00 | 0.00 | 0.00 | 68 | 1020.5 |
| 20260831003217 | 67 | 324 | 0.0 | 0.0 | 0.00 | 0.00 | 0.00 | 70 | 1020.4 |
| 20260831002715 | 67 | 337 | 3.0 | 3.0 | 0.00 | 0.00 | 0.00 | 67 | 1020.5 |
| 20260831002210 | 67 | 347 | 0.0 | 1.0 | 0.00 | 0.00 | 0.00 | 70 | 1020.6 |
| 20260831001706 | 67 | 329 | 0.0 | 0.0 | 0.00 | 0.00 | 0.00 | 74 | 1020.5 |
| 20260831001201 | 67 | 331 | 0.0 | 0.0 | 0.00 | 0.00 | 0.00 | 75 | 1020.4 |
| 20260831000657 | 66 | 304 | 2.0 | 2.0 | 0.00 | 0.00 | 0.00 | 72 | 1020.7 |
| 20260831000152 | 67 | 349 | 0.0 | 0.0 | 0.00 | 0.00 | 0.00 | 70 | 1020.4 |
| 20260830235651 | 67 | 351 | 0.0 | 0.0 | 0.00 | 0.00 | 0.00 | 71 | 1020.4 |
| 20260830235146 | 67 | 341 | 1.0 | 1.0 | 0.00 | 0.00 | 0.00 | 72 | 1020.5 |
| 20260830234641 | 67 | 10 | 3.0 | 3.0 | 0.00 | 0.00 | 0.00 | 70 | 1020.6 |
| 20260830234137 | 67 | 336 | 0.0 | 0.0 | 0.00 | 0.00 | 0.00 | 70 | 1020.6 |
| 20260830233632 | 68 | 345 | 0.0 | 1.0 | 0.00 | 0.00 | 0.00 | 70 | 1020.6 |
| 20260830233127 | 67 | 334 | 0.0 | 0.0 | 0.00 | 0.00 | 0.00 | 70 | 1020.6 |
| 20260830232624 | 67 | 323 | 0.0 | 0.0 | 0.00 | 0.00 | 0.00 | 72 | 1020.7 |
| 20260830232119 | 67 | 323 | 0.0 | 0.0 | 0.00 | 0.00 | 0.00 | 69 | 1020.7 |
| 20260830231615 | 67 | 331 | 0.0 | 0.0 | 0.00 | 0.00 | 0.00 | 69 | 1021.0 |
| 20260830231114 | 67 | 324 | 0.0 | 1.0 | 0.00 | 0.00 | 0.00 | 70 | 1020.8 |
| 20260830230610 | 67 | 310 | 1.0 | 1.0 | 0.00 | 0.00 | 0.00 | 69 | 1020.7 |
| 20260830230104 | 67 | 304 | 0.0 | 0.0 | 0.00 | 0.00 | 0.00 | 68 | 1020.7 |
| 20260830225559 | 68 | 15 | 2.0 | 3.0 | 0.00 | 0.00 | 0.00 | 67 | 1020.9 |
| 20260830225059 | 68 | 153 | 1.0 | 1.0 | 0.00 | 0.00 | 0.00 | 65 | 1020.9 |
| 20260830224558 | 68 | 324 | 0.0 | 0.0 | 0.00 | 0.00 | 0.00 | 67 | 1020.8 |
| 20260830224054 | 68 | 295 | 1.0 | 1.0 | 0.00 | 0.00 | 0.00 | 65 | 1021.0 |
| 20260830223551 | 68 | 315 | 0.0 | 0.0 | 0.00 | 0.00 | 0.00 | 67 | 1020.8 |
| 20260830223045 | 67 | 198 | 2.0 | 2.0 | 0.00 | 0.00 | 0.00 | 67 | 1020.8 |
| 20260830222540 | 68 | 307 | 0.0 | 0.0 | 0.00 | 0.00 | 0.00 | 69 | 1020.8 |
| 20260830222036 | 68 | 310 | 0.0 | 0.0 | 0.00 | 0.00 | 0.00 | 64 | 1020.8 |
| 20260830221532 | 68 | 303 | 0.0 | 1.0 | 0.00 | 0.00 | 0.00 | 67 | 1021.0 |
| 20260830221028 | 67 | 331 | 0.0 | 0.0 | 0.00 | 0.00 | 0.00 | 69 | 1021.1 |
| 20260830220527 | 67 | 330 | 0.0 | 0.0 | 0.00 | 0.00 | 0.00 | 69 | 1021.1 |
| 20260830220026 | 67 | 276 | 1.0 | 2.0 | 0.00 | 0.00 | 0.00 | 70 | 1021.1 |
| 20260830215520 | 67 | 343 | 0.0 | 1.0 | 0.00 | 0.00 | 0.00 | 68 | 1021.1 |
| 20260830215015 | 67 | 341 | 0.0 | 0.0 | 0.00 | 0.00 | 0.00 | 68 | 1021.1 |
| 20260830214510 | 66 | 270 | 0.0 | 0.0 | 0.00 | 0.00 | 0.00 | 70 | 1021.0 |
| 20260830214004 | 66 | 338 | 0.0 | 1.0 | 0.00 | 0.00 | 0.00 | 69 | 1021.4 |
| 20260830213459 | 66 | 306 | 1.0 | 1.0 | 0.00 | 0.00 | 0.00 | 70 | 1021.2 |